Regional Weather Roundup
Issued by NWS

Home | Current Version | Previous Version | Text Only | Print | Product List | Glossary On
Versions: 1 2 3 4 5 6 7 8 9 10 11 12 13 14 15 16 17 18 19 20 21 22 23 24 25 26 27 28 29 30 31 32 33 34 35 36 37 38 39 40 41 42 43 44 45 46 47 48 49 50
000
ASUS43 KDMX 171606
RWRIA

WEATHER ROUNDUP FOR IOWA
NATIONAL WEATHER SERVICE DES MOINES IA
1100 AM CDT TUE OCT 17 2017

NOTE: "FAIR" INDICATES FEW OR NO CLOUDS BELOW 12,000 FEET WITH NO
SIGNIFICANT WEATHER AND/OR OBSTRUCTIONS TO VISIBILITY.

* - THESE STATIONS ARE NOT NWS STATIONS...THUS NOT UNDER NWS
QUALITY CONTROL.  THEY ALSO DO NOT REPORT WEATHER SUCH
AS PRECIPITATION OR FOG.

IAZ001>003-012>014-020>022-031>034-043>046-171700-
   NORTHWEST IOWA

CITY           SKY/WX    TMP DP  RH WIND       PRES   REMARKS
CARROLL *      SUNNY     63  45  51 SW13G18   30.10S
CHEROKEE *     SUNNY     57  47  67 S6        30.08S
DENISON *      SUNNY     59  43  55 MISG      30.11S
LE MARS *      SUNNY     57  43  58 VRB5      30.07F
ORANGE CITY *  SUNNY     59  46  63 S5        30.07S
SHELDON *      SUNNY     57  43  58 S6        30.05F
SIOUX CITY     SUNNY     57  46  66 SE6       30.08F
SPENCER        SUNNY     60  43  53 SW6       30.06F
STORM LAKE *   SUNNY     59  43  55 SW9       30.08S
$$

IAZ055>058-069>071-079>083-090>094-171700-
   SOUTHWEST IOWA

CITY           SKY/WX    TMP DP  RH WIND       PRES   REMARKS
ATLANTIC *     SUNNY     59  45  58 S15       30.11F
AUDUBON *      SUNNY     59  45  58 SW10G17   30.12S
CLARINDA *     SUNNY     63  43  48 SW16G24   30.16F
COUNCIL BLFS * SUNNY     57  46  67 SW12      30.11S
CRESTON *      SUNNY     63  43  48 SW15G21   30.15F
HARLAN  *      SUNNY     59  43  55 SW10G17   30.14S
LAMONI         SUNNY     61  44  53 SW15G23   30.17S
RED OAK *      SUNNY     61  43  51 SW15G21   30.13F
SHENANDOAH *   SUNNY     63  41  45 SW17      30.14S
$$

IAZ047>049-059>061-072>074-084-171700-
   CENTRAL IOWA

CITY           SKY/WX    TMP DP  RH WIND       PRES   REMARKS
AMES           SUNNY     62  44  51 SW13      30.11F
ANKENY *       SUNNY     63  45  51 SW8       30.14F
BOONE *        SUNNY     61  43  51 SW12G17   30.10F
CHARITON *     SUNNY     63  43  48 SW13      30.16S
DES MOINES     MOSUNNY   63  42  46 SW13      30.13S
GRINNELL*      SUNNY     62  42  47 SW10      30.16F
KNOXVILLE *    SUNNY     63  41  45 SW15      30.14F
MARSHALLTOWN   SUNNY     61  44  53 SW15      30.12S
NEWTON *       SUNNY     64  41  42 SW15      30.14F
PELLA *        SUNNY     63  42  46 SW9       30.17S
PERRY *          N/A     65  39  39 SW9G16    30.11F
$$

IAZ004>006-015-016-023>025-035-036-171700-
   NORTH CENTRAL IOWA

CITY           SKY/WX    TMP DP  RH WIND       PRES   REMARKS
ALGONA *       SUNNY     61  45  55 SW10      30.07F
CLARION *      SUNNY     61  45  55 SW12      30.09F
ESTHERVILLE    SUNNY     60  44  55 SW7       30.04F
FORT DODGE *   SUNNY     59  45  59 SW8       30.10S
MASON CITY     SUNNY     59  43  55 SW9       30.09S
FOREST CITY *    N/A     59  43  55 SW10      30.07F
WEBSTER CITY * SUNNY     61  43  51 SW9G17    30.08S
IOWA FALLS *     N/A     61  44  53 SW10G17   30.12S
$$

IAZ007>011-017>019-026>030-037>042-050>054-066-171700-
   NORTHEAST IOWA

CITY           SKY/WX    TMP DP  RH WIND       PRES   REMARKS
CEDAR RAPIDS   SUNNY     64  42  44 SW14G23   30.15F
CHARLES CITY * SUNNY     61  41  48 SW9G16    30.09S
CLINTON *      SUNNY     65  44  46 SW15      30.18F
DECORAH *      SUNNY     59  43  55 VRB7G16   30.08S
DUBUQUE        SUNNY     60  44  55 SW13      30.14F
MONTICELLO *   SUNNY     63  43  48 SW15      30.14F
OELWEIN *      SUNNY     61  45  55 SW12G20   30.12F
WATERLOO       SUNNY     60  42  51 SW15      30.11S
$$

IAZ064-065-067-068-078-171700-
   EAST CENTRAL IOWA

CITY           SKY/WX    TMP DP  RH WIND       PRES   REMARKS
DAVENPORT      SUNNY     64  42  44 SW12G23   30.20F
IOWA CITY      SUNNY     66  42  41 SW17G23   30.18F
MUSCATINE *    SUNNY     64  43  45 SW12G20   30.20S
QUAD CITIES    SUNNY     63  44  50 SW13      30.19S
$$

IAZ062-063-075>077-085>089-095>099-171700-
   SOUTHEAST IOWA

CITY           SKY/WX    TMP DP  RH WIND       PRES   REMARKS
BURLINGTON     SUNNY     63  44  50 SW18      30.22F
FAIRFIELD *    SUNNY     63  39  42 SW14G21   30.19S
FORT MADISON * SUNNY     61  45  55 S12       30.23F
KEOKUK *       SUNNY     63  43  48 S15       30.23F
OSKALOOSA *      N/A     64  42  43 SW17G24   30.18S
OTTUMWA        SUNNY     64  43  46 SW15      30.18R
WASHINGTON *   SUNNY     64  43  45 SW14      30.20S
$$

ABBREVIATIONS USED IN REMARKS
   TC - TEMPERATURES IN CELSIUS
  WCI - WIND CHILL INDEX
   HX - HEAT INDEX
  VSB - VISIBILITY
$$





USA.gov is the U.S. government's official web portal to all federal, state and local government web resources and services.